Change the Weather History Date:

Friday, June 21, 2013

  Actual Average Record
Temperature  
Mean Temperature 80 °F 83 °F  
Max Temperature 88 °F 92 °F 98 °F (1997)
Min Temperature 72 °F 74 °F 68 °F (1993)
Degree Days  
Heating Degree Days 0 0  
Month to date heating degree days 0 0  
Since 1 June heating degree days 0 0  
Since 1 July heating degree days 201 287  
Cooling Degree Days 15 18  
Month to date cooling degree days 346 366  
Year to date cooling degree days 1484 1432  
Since 1 June cooling degree days 346 366  
Growing Degree Days 30 (Base 50)    
Moisture  
Dew Point 71 °F    
Average Humidity 80    
Maximum Humidity 93    
Minimum Humidity 59    
Precipitation  
Precipitation 2.73 in 0.38 in 3.57 in (1979)
Month to date precipitation 8.18 6.74  
Year to date precipitation 18.34 18.54  
Sea Level Pressure  
Sea Level Pressure 30.09 in    
Wind  
Wind Speed 3 mph (NNW)    
Max Wind Speed 22 mph    
Max Gust Speed 31 mph    
Visibility 8 miles    
Events Fog , Rain , Thunderstorm    
T = Trace of Precipitation, MM = Missing Value Source: NWS Daily Summary

Daily Weather History Graph

Daily Weather History Graph

Search for Another Location

Airport or City:

Trip Planner

Search our weather history database for the weather conditions in past years. The results will help you decide how hot, cold, wet, or windy it might be!

Date:

Astronomy

Jun. 21, 2013 Rise Set
Actual Time 6:34 AM EDT 8:23 PM EDT
Civil Twilight 6:08 AM EDT 8:49 PM EDT
Nautical Twilight 5:37 AM EDT 9:21 PM EDT
Astronomical Twilight 5:03 AM EDT 9:55 PM EDT
Moon 6:38 PM EDT (6/21) 4:41 AM EDT (6/21)
Length of Visible Light 14h 41m
Length of Day
13h 48m
Waxing Gibbous, 95% of the Moon is Illuminated
Jun 21
Waxing Gibbous
Jun 23
Full
Jun 30
Last Quarter
Jul 8
New
Jul 15
First Quarter

Hourly Weather History & Observations

Time (EDT) Temp. Heat Index Dew Point Humidity Pressure Visibility Wind Dir Wind Speed Gust Speed Precip Events Conditions
12:53 AM 73.9 °F - 72.0 °F 93% 30.10 in 10.0 mi East 4.6 mph - N/A   Clear
1:53 AM 73.9 °F - 72.0 °F 93% 30.08 in 10.0 mi Calm Calm - N/A   Clear
2:53 AM 73.0 °F - 71.1 °F 93% 30.06 in 10.0 mi ESE 3.5 mph - N/A   Clear
3:53 AM 73.0 °F - 71.1 °F 93% 30.05 in 10.0 mi Calm Calm - N/A   Clear
4:53 AM 73.0 °F - 71.1 °F 93% 30.05 in 10.0 mi Calm Calm - N/A   Clear
5:53 AM 73.0 °F - 71.1 °F 93% 30.04 in 10.0 mi Calm Calm - N/A   Clear
6:53 AM 73.0 °F - 70.0 °F 90% 30.06 in 10.0 mi Calm Calm - N/A   Clear
7:53 AM 75.0 °F - 71.1 °F 87% 30.08 in 10.0 mi Calm Calm - N/A   Clear
8:53 AM 79.0 °F - 72.0 °F 79% 30.09 in 10.0 mi Calm Calm - N/A   Clear
9:53 AM 82.9 °F 89.4 °F 73.9 °F 74% 30.10 in 10.0 mi Variable 4.6 mph - N/A   Clear
10:53 AM 86.0 °F 93.0 °F 73.0 °F 65% 30.11 in 10.0 mi Variable 6.9 mph - N/A   Partly Cloudy
11:53 AM 86.0 °F 91.5 °F 71.1 °F 61% 30.11 in 10.0 mi SW 4.6 mph - N/A   Mostly Cloudy
12:53 PM 87.1 °F 93.6 °F 72.0 °F 61% 30.10 in 10.0 mi WNW 9.2 mph - N/A   Overcast
1:13 PM 84.2 °F 90.9 °F 73.4 °F 70% 30.09 in 1.8 mi SW 5.8 mph - 0.01 in Rain Heavy Rain
1:24 PM 78.8 °F - 69.8 °F 74% 30.12 in 0.2 mi SSE 18.4 mph 31.1 mph 0.30 in Rain Heavy Rain
1:36 PM 75.2 °F - 69.8 °F 83% 30.15 in 0.2 mi NNE 9.2 mph 20.7 mph 1.26 in Rain Heavy Rain
1:43 PM 73.4 °F - 69.8 °F 88% 30.12 in 0.2 mi NNW 3.5 mph 16.1 mph 2.00 in Fog , Rain , Thunderstorm Heavy Thunderstorms and Rain
1:53 PM 73.0 °F - 70.0 °F 90% 30.13 in 0.2 mi North 8.1 mph - 2.60 in Fog , Rain , Thunderstorm Heavy Thunderstorms and Rain
2:02 PM 75.2 °F - 71.6 °F 89% 30.11 in 1.2 mi WSW 5.8 mph - 0.10 in Rain , Thunderstorm Heavy Thunderstorms and Rain
2:10 PM 77.0 °F - 71.6 °F 83% 30.10 in 3.0 mi West 8.1 mph - 0.13 in Rain , Thunderstorm Light Rain
2:28 PM 78.8 °F - 71.6 °F 78% 30.10 in 10.0 mi NW 6.9 mph - 0.13 in   Overcast
2:38 PM 78.8 °F - 71.6 °F 78% 30.09 in 10.0 mi West 3.5 mph - 0.13 in Thunderstorm Mostly Cloudy
2:53 PM 79.0 °F - 71.1 °F 77% 30.09 in 10.0 mi Calm Calm - 0.13 in   Partly Cloudy
3:53 PM 84.9 °F 91.4 °F 73.0 °F 67% 30.08 in 10.0 mi NW 4.6 mph - N/A   Clear
4:53 PM 84.0 °F 89.6 °F 72.0 °F 67% 30.08 in 10.0 mi West 4.6 mph - N/A   Clear
5:53 PM 84.9 °F 90.7 °F 72.0 °F 65% 30.08 in 10.0 mi East 11.5 mph 24.2 mph N/A   Overcast
6:53 PM 80.1 °F 82.3 °F 66.9 °F 64% 30.08 in 10.0 mi ENE 4.6 mph - N/A   Clear
7:53 PM 80.1 °F 82.9 °F 69.1 °F 69% 30.08 in 10.0 mi ENE 3.5 mph - N/A   Clear
8:53 PM 79.0 °F - 71.1 °F 77% 30.09 in 10.0 mi Calm Calm - N/A   Clear
9:53 PM 77.0 °F - 71.1 °F 82% 30.11 in 10.0 mi Calm Calm - N/A   Clear
10:53 PM 75.9 °F - 72.0 °F 87% 30.11 in 10.0 mi ESE 3.5 mph - N/A   Clear
11:53 PM 75.9 °F - 72.0 °F 87% 30.12 in 10.0 mi East 3.5 mph - N/A   Mostly Cloudy